Temp
23 25 25 23 23 20 23 27 28 28 30 29 30 29 29 27 27 27 25 25 26 25 24 24 25 25 25 24 23 23 23 23 23 23 22 22 22 21 22 21 21 21 22 22 22 22 22 21 21
23 24 23 20 21 22 23 26 28 28 30 29 29 29 29 28 27 24 23 23 26 25 24 24 24 25 25 24 23 23 22 23 23 23 22 22 22 21 21 21 21 21 21 22 22 22 22 21 21
24 22 20 21 19 22 25 28 26 29 29 30 29 28 28 28 27 25 25 23 24 24 24 24 24 24 25 24 23 23 22 22 23 23 22 22 22 21 21 21 21 21 21 21 22 22 22 21 21
23 21 19 21 23 24 27 28 29 29 29 28 28 27 28 27 29 24 22 23 23 23 23 24 24 24 24 24 23 23 22 22 22 22 22 22 22 21 21 20 21 21 21 21 22 22 22 21 21
22 19 20 22 24 26 27 28 28 28 28 27 27 26 26 25 24 23 24 25 25 23 23 24 23 23 24 23 23 23 22 22 22 21 21 21 22 21 21 20 20 21 21 21 21 22 21 21 20
19 18 20 22 24 26 27 24 29 28 27 27 26 26 25 25 25 24 25 25 25 24 22 23 23 23 23 23 23 23 22 22 22 21 21 21 21 21 21 21 21 21 21 21 21 21 21 21 21
20 18 20 22 24 26 24 25 25 26 24 26 27 25 26 26 25 24 24 24 24 24 23 22 22 22 22 22 23 23 22 22 22 21 21 21 21 21 21 21 21 21 21 21 21 21 22 22 22
19 19 22 22 24 23 23 24 24 24 26 27 26 24 25 26 25 24 23 23 24 24 24 23 22 22 21 21 22 23 22 22 21 21 21 21 20 20 20 20 21 21 21 21 21 21 22 22 22
22 19 20 23 23 23 22 23 23 25 24 25 25 25 26 27 25 24 22 22 22 22 23 23 23 22 21 20 20 21 22 22 21 21 21 20 20 20 20 20 20 21 21 21 21 21 21 22 22
19 18 22 22 22 22 21 20 22 23 24 25 24 25 27 27 27 22 21 21 22 23 23 23 23 23 22 20 19 20 20 21 21 21 20 20 20 20 20 20 20 20 20 20 20 21 21 21 22
21 20 20 21 22 22 21 21 21 21 22 23 23 23 23 23 24 24 24 22 22 23 23 23 23 22 22 21 20 19 19 20 20 21 21 20 20 20 20 20 20 20 20 20 20 20 20 21 22
22 21 21 22 20 21 21 21 21 21 20 21 20 21 21 20 21 22 23 23 24 22 23 23 22 22 22 22 21 20 19 19 20 20 20 20 20 20 19 20 20 20 20 20 20 20 20 21 21
20 21 21 20 19 19 20 19 20 19 19 18 17 16 15 15 15 17 20 22 23 23 22 21 22 23 22 22 21 21 20 20 20 20 20 20 20 20 20 20 20 20 20 20 20 20 20 20 21
20 21 21 20 20 20 18 16 17 17 16 15 15 15 14 14 15 14 14 14 16 21 22 22 22 23 22 22 21 21 21 21 20 20 21 20 21 20 20 20 20 20 20 21 21 21 20 20 21
20 20 19 21 20 20 20 14 14 15 15 14 13 14 13 14 14 13 13 13 13 14 17 19 22 21 22 22 22 22 22 22 21 20 21 21 20 20 20 20 20 20 20 20 21 20 20 20 21
19 17 17 18 19 19 17 12 13 14 13 12 12 12 12 13 13 13 12 12 12 13 14 16 18 20 21 21 22 22 22 22 22 21 21 21 21 21 20 20 21 21 21 20 20 21 20 20 20
15 16 17 18 18 17 16 13 13 13 12 11 10 10 11 11 12 12 12 11 11 12 13 13 15 18 21 21 22 22 22 22 22 22 22 21 21 21 21 21 21 21 21 21 20 21 21 20 21
17 16 14 16 17 13 12 11 11 12 11 10 9 9 9 10 11 11 11 11 10 11 12 12 13 15 17 19 20 21 21 21 21 22 22 22 21 21 21 21 21 21 22 21 21 21 21 21 21
18 16 15 17 14 12 11 10 10 11 10 9 9 9 9 9 10 10 10 10 10 10 10 11 11 12 14 16 19 20 21 21 21 22 22 22 22 22 21 21 21 21 21 22 22 21 21 21 21
17 16 16 17 15 12 11 9 10 10 9 9 8 8 8 8 9 9 9 10 10 9 9 10 10 10 11 12 16 19 21 21 22 22 22 22 22 22 22 21 21 22 22 22 22 22 20 21 21
16 15 16 17 15 12 12 10 10 11 10 10 9 8 8 8 8 8 9 9 9 9 9 10 10 10 10 11 13 18 19 21 21 21 21 22 22 23 22 22 21 21 22 22 22 22 21 21 21
15 17 17 17 15 13 14 12 9 9 10 10 9 7 7 7 7 8 8 8 9 8 9 9 10 9 9 10 10 11 12 16 20 21 22 22 22 22 22 22 22 22 21 21 21 22 22 21 20
17 17 17 17 15 13 15 11 9 8 8 9 9 8 7 7 7 7 7 7 8 9 8 9 9 9 9 10 9 8 9 10 12 16 18 19 18 20 22 22 22 21 21 20 21 21 21 20 21
18 17 15 15 13 9 14 13 5 7 7 8 9 9 8 7 7 7 8 8 9 8 9 8 8 8 8 8 9 8 8 8 8 9 10 12 13 14 14 15 18 20 20 20 21 21 21 20 20
14 13 10 11 9 10 13 11 6 8 9 9 8 8 7 7 6 6 7 7 9 9 9 8 9 8 8 8 8 8 7 7 7 7 8 8 9 9 11 14 13 14 15 19 20 20 19 20 19
15 12 10 14 11 13 13 8 8 10 10 9 9 8 7 7 7 6 8 8 8 9 9 10 8 8 8 8 8 7 7 7 7 6 7 7 8 8 10 10 11 14 14 12 16 18 19 19 19
15 10 14 12 12 11 10 8 10 10 10 9 8 9 7 7 7 6 8 8 8 8 8 10 9 9 8 8 8 7 7 7 7 7 6 6 7 7 8 10 10 9 10 12 11 12 11 11 16
14 14 11 8 8 10 11 10 7 9 9 9 9 8 8 8 7 7 8 8 8 8 9 9 10 10 9 8 8 7 7 6 6 6 7 7 7 7 8 8 8 9 8 9 10 10 14 13 11
12 11 9 9 8 9 7 8 9 10 10 9 9 9 8 8 7 7 8 9 9 8 9 9 10 9 10 9 8 8 7 6 6 6 6 6 6 7 7 7 7 8 8 8 8 9 8 11 10
14 12 10 5 6 5 4 6 13 11 10 10 10 11 10 9 8 7 8 9 9 9 9 9 9 10 10 9 8 7 7 7 7 6 5 6 6 6 6 6 7 7 7 7 7 7 7 7 7
Height
787 785 782 784 808 815 818 802 778 775 765 754 753 754 758 759 772 791 762 767 771 777 784 790 793 796 798 800 803 805 806 808 809 811 813 816 820 822 822 823 825 826 827 829 831 832 835 837 838
786 785 784 793 821 828 821 789 785 774 761 754 756 759 758 769 758 765 768 771 772 776 783 790 794 797 799 801 804 806 809 810 811 813 815 818 821 824 825 826 828 829 830 831 833 834 836 838 840
786 786 794 807 823 826 813 782 782 766 757 754 763 759 763 770 763 763 764 770 776 779 784 791 795 799 800 802 805 808 810 813 814 815 816 819 822 825 827 829 830 832 833 834 835 837 838 840 842
788 788 795 815 816 801 790 780 769 767 762 759 761 776 767 765 761 764 769 773 779 783 788 793 797 800 802 804 805 809 811 815 816 818 819 820 823 827 829 831 832 834 835 836 837 839 840 842 843
789 794 815 814 809 796 781 773 770 772 771 772 765 786 779 774 769 770 771 775 779 785 791 795 800 802 804 806 807 809 813 815 818 820 822 823 824 827 830 832 834 835 837 838 839 841 842 844 845
798 800 821 821 811 792 782 780 768 776 777 773 778 781 785 781 776 780 779 779 782 786 792 797 802 805 806 807 809 810 812 817 818 821 823 825 826 828 830 832 835 836 838 839 841 842 844 845 847
800 813 819 814 812 799 798 781 783 784 786 780 772 790 786 782 783 783 784 785 788 790 794 799 803 806 809 810 810 812 814 816 819 821 824 826 828 829 831 832 834 836 838 839 841 843 844 846 847
796 808 813 812 811 814 798 790 788 785 791 778 775 798 797 789 788 789 790 789 792 794 796 800 804 806 809 812 813 813 815 817 820 821 824 826 828 830 832 833 834 835 838 839 841 843 844 845 846
789 817 823 809 809 809 801 799 789 787 791 789 791 794 794 793 792 793 796 797 797 798 798 799 801 806 809 812 814 815 816 818 820 822 824 826 828 830 832 833 834 835 837 839 841 842 844 845 845
800 820 809 803 803 808 805 805 802 800 798 799 799 794 794 794 795 799 796 796 796 796 798 799 801 803 807 811 814 815 817 818 819 821 823 826 827 829 831 833 834 836 836 838 840 842 843 844 844
794 809 805 805 802 800 806 806 806 807 811 812 811 806 803 800 801 801 803 802 799 796 795 796 798 801 803 807 811 815 817 818 819 820 822 824 827 829 830 832 833 834 836 837 839 841 842 842 843
799 797 798 801 804 805 808 811 814 815 825 815 812 809 806 806 806 807 808 808 803 800 796 795 797 799 800 803 807 811 815 817 818 819 820 822 824 827 828 830 831 832 833 835 836 838 840 841 841
801 801 799 803 805 807 808 820 822 825 823 819 818 816 818 813 811 811 812 809 805 803 801 798 795 794 795 797 802 806 810 814 816 818 819 820 821 823 826 827 829 830 831 833 833 835 837 839 840
798 800 803 804 808 810 820 834 825 836 827 825 824 828 827 824 820 808 808 810 807 802 798 792 791 789 789 790 794 799 804 808 812 814 816 818 819 821 822 823 825 827 828 829 831 832 834 836 837
797 805 806 807 810 813 810 844 855 848 833 835 836 833 832 830 825 827 825 818 814 806 800 797 793 792 789 787 788 790 793 798 803 807 810 813 815 817 819 820 821 823 825 826 827 829 831 833 834
804 812 828 823 813 814 819 869 859 851 840 844 842 839 834 834 835 831 828 823 817 811 804 798 794 795 794 789 786 786 789 790 793 797 802 807 810 812 814 815 816 819 821 823 823 824 826 827 828
822 834 832 830 820 822 829 859 861 857 847 851 850 848 843 838 834 834 832 827 821 815 808 801 794 789 790 790 786 784 782 785 787 791 793 798 802 806 808 810 811 814 816 818 819 819 820 821 822
826 832 841 838 837 842 855 868 864 859 856 860 859 854 851 848 844 841 837 830 823 817 811 804 796 790 786 789 789 787 786 785 785 785 788 791 796 800 802 805 806 809 810 812 814 815 815 815 815
815 830 839 834 843 853 865 872 871 866 863 863 861 860 859 856 854 848 842 834 826 817 811 805 799 795 788 786 786 785 780 780 781 782 784 786 790 794 796 798 801 803 804 804 806 808 809 809 810
823 833 839 834 839 850 868 878 874 867 869 869 869 866 863 859 853 849 844 838 827 821 817 811 804 797 791 786 783 784 782 777 774 776 778 781 785 788 791 792 793 796 798 799 800 801 803 803 804
828 835 834 834 836 851 856 873 875 871 870 869 868 869 866 862 858 852 846 842 834 824 820 816 809 803 796 788 781 778 780 779 778 777 777 779 780 782 785 787 788 790 792 792 794 794 795 797 799
833 824 825 830 840 861 853 872 880 877 874 870 869 869 867 862 859 856 851 844 839 832 826 819 813 807 799 792 787 783 783 778 776 772 772 774 775 778 780 782 782 783 784 784 785 787 788 790 790
830 825 829 831 842 853 849 871 884 881 878 871 868 866 866 861 860 858 853 848 842 836 829 822 816 810 803 797 794 790 785 781 779 770 771 776 779 779 775 776 777 778 778 778 779 780 780 780 782
820 828 836 840 852 886 851 858 905 889 884 873 868 867 865 863 860 858 853 847 842 837 831 824 818 812 809 802 799 796 793 784 775 776 774 774 776 774 774 771 775 772 771 770 769 770 770 771 772
832 842 870 871 885 877 852 868 893 878 871 871 870 867 865 863 861 858 852 848 843 836 832 826 820 817 812 808 802 800 796 794 791 787 784 779 781 779 776 763 776 769 769 765 762 763 763 763 765
833 844 864 851 866 858 855 886 879 867 867 869 867 865 864 862 860 858 854 851 847 840 833 829 826 822 818 813 809 806 802 798 798 795 792 788 785 783 767 764 765 765 760 765 765 763 760 760 757
833 860 840 854 856 869 875 881 868 863 865 867 866 863 862 860 859 857 853 851 848 843 838 834 831 826 823 818 814 811 805 804 798 797 796 784 782 783 779 773 769 772 766 753 764 763 761 759 756
832 836 860 875 892 878 869 872 887 869 867 862 862 860 857 855 855 854 851 850 848 845 841 836 832 829 824 820 818 814 808 805 801 798 790 784 786 788 781 778 765 756 760 760 754 743 746 748 765
842 847 863 866 874 882 900 885 858 857 858 858 855 852 852 852 852 850 849 848 846 844 841 838 833 827 824 822 820 815 808 807 802 800 795 791 795 784 788 779 770 768 771 764 763 748 743 753 753
830 841 855 896 896 896 908 893 841 847 848 850 849 847 848 848 848 847 847 846 844 842 839 838 834 830 825 822 819 815 813 809 804 802 800 795 794 787 782 781 775 773 772 769 761 755 747 750 728
Wind_Speed
19 17 14 3 4 4 3 5 3 8 2 6 3 5 5 6 4 3 1 25 35 37 34 29 27 24 25 24 24 24 24 25 26 27 29 28 26 23 22 21 22 22 22 22 22 22 22 23 23
17 15 4 2 4 2 4 4 8 6 5 11 9 6 8 6 5 7 10 22 40 39 35 31 28 26 25 24 24 24 24 24 25 26 27 26 23 20 18 19 20 20 20 21 22 22 23 23 23
13 5 3 3 3 4 4 2 7 7 10 5 5 7 5 4 4 9 17 33 38 37 35 32 29 26 26 25 24 23 23 23 24 26 26 24 21 18 17 18 18 18 19 20 21 22 23 23 25
5 5 4 3 4 4 3 6 5 5 9 8 5 7 4 12 2 14 30 36 35 34 34 32 29 27 25 25 25 24 23 23 23 24 25 24 21 19 17 17 16 16 17 18 20 21 22 23 22
2 2 3 1 3 5 5 5 5 12 6 6 9 4 4 8 21 28 31 33 33 31 31 30 28 27 25 24 24 24 23 23 22 23 23 22 21 20 17 15 14 14 15 16 18 19 19 20 19
4 2 3 1 4 7 4 9 2 7 6 4 8 5 4 13 25 22 25 29 29 30 29 29 26 25 24 24 23 24 24 22 22 21 21 21 20 19 18 15 13 12 14 15 15 17 17 16 16
4 3 2 3 1 3 7 9 12 5 7 9 6 5 4 10 19 24 24 25 24 24 26 27 25 23 22 22 23 22 23 22 22 21 20 20 19 18 17 15 14 13 13 15 14 15 15 14 14
4 4 2 1 1 3 11 8 5 9 13 3 6 5 4 8 19 22 23 25 24 22 23 25 24 23 21 20 21 22 22 22 21 21 20 19 18 17 16 15 14 13 14 15 14 14 14 14 14
3 4 0 1 3 2 7 8 10 4 9 15 7 13 8 22 17 21 18 16 16 17 20 25 25 24 23 21 20 21 21 21 21 20 20 19 19 18 16 15 14 15 15 15 15 15 13 13 14
4 4 1 1 2 3 4 10 6 7 13 11 14 18 26 20 20 10 13 17 16 17 18 22 25 25 25 23 21 21 22 23 23 22 21 20 19 18 17 15 14 14 15 16 16 16 14 13 13
4 5 6 3 5 5 4 10 8 10 12 10 7 9 18 23 22 23 6 6 13 20 21 23 25 26 25 25 24 23 24 25 25 24 23 21 20 19 18 17 17 16 17 18 18 18 17 16 14
5 9 7 3 6 5 6 5 15 12 6 9 10 12 25 21 21 17 20 24 20 19 22 23 24 24 25 25 25 27 26 27 27 26 24 23 22 21 20 20 19 19 20 20 21 21 20 19 17
7 3 5 8 10 7 11 15 10 19 17 22 27 29 23 24 35 33 26 23 23 13 21 25 25 26 28 27 25 27 29 28 29 28 27 26 25 23 22 21 21 21 21 22 23 23 22 22 20
5 6 6 7 9 7 24 12 8 14 17 23 24 21 21 26 31 43 45 39 40 32 28 29 30 29 32 33 30 27 28 31 31 30 30 29 28 26 25 25 25 24 24 24 24 25 25 24 23
2 6 7 5 3 3 3 23 15 12 17 21 19 18 19 26 36 33 35 36 37 39 34 18 32 32 34 36 32 31 29 30 34 34 33 32 31 31 29 28 28 27 25 26 26 25 25 25 24
4 6 6 8 6 7 9 6 12 12 19 18 19 18 19 21 29 34 36 34 37 39 38 35 14 23 34 37 36 33 32 32 34 36 36 35 34 34 32 32 32 28 27 26 28 28 28 27 27
8 6 9 6 5 5 9 3 12 11 17 17 17 17 18 20 32 34 33 34 33 34 36 38 32 13 34 38 39 37 36 35 34 35 36 37 37 36 38 34 36 32 30 31 30 30 30 31 30
4 7 6 7 9 21 17 7 9 14 18 14 13 16 17 18 20 31 32 33 33 33 33 37 39 29 12 26 29 33 32 37 37 37 36 35 37 38 39 40 34 37 33 33 34 34 33 34 32
6 7 9 2 14 15 12 8 10 11 14 17 15 14 14 15 22 27 31 32 33 35 36 38 40 40 27 16 23 27 36 40 40 41 40 40 39 38 39 43 39 39 39 36 38 38 37 38 35
8 8 3 1 12 12 8 8 6 11 9 10 11 12 13 15 17 28 32 32 33 33 33 34 35 39 38 27 17 22 29 34 43 41 41 43 42 41 42 44 44 40 40 41 37 37 35 39 37
4 7 3 3 8 9 8 4 5 5 6 8 9 7 11 13 15 18 27 30 31 34 33 32 31 32 38 33 19 16 22 26 22 26 31 37 43 44 43 45 46 44 43 41 42 41 38 29 34
5 5 4 3 4 3 5 2 2 3 4 2 4 5 6 7 9 16 22 25 29 29 31 29 31 32 37 39 34 26 19 16 20 26 31 32 36 42 44 47 48 49 47 45 46 43 44 37 28
3 5 4 1 1 4 2 3 2 5 6 9 6 5 6 6 7 8 16 21 22 30 29 30 29 32 33 41 38 33 28 25 20 9 10 20 17 29 41 46 49 49 49 46 47 44 44 42 37
2 2 1 1 3 2 3 3 4 2 4 7 5 5 6 7 8 16 18 18 23 26 30 29 32 33 31 34 38 36 33 31 33 32 28 20 18 16 12 10 29 43 47 47 49 52 45 45 42
6 4 2 2 2 4 2 4 6 5 5 5 8 7 7 7 7 8 15 19 19 22 27 27 32 31 33 30 33 34 31 30 28 28 28 30 27 24 22 19 18 16 20 42 49 46 45 43 38
1 5 4 6 4 3 4 1 4 5 4 6 6 6 6 7 6 8 14 16 18 19 22 28 26 27 31 30 29 27 28 27 23 25 22 23 26 29 29 22 18 22 26 34 21 31 37 38 40
1 3 3 5 3 3 1 4 5 4 6 7 8 6 8 7 7 7 12 11 14 18 18 22 22 25 24 25 25 27 27 25 25 26 20 19 30 25 28 27 25 19 20 23 27 33 38 34 27
5 2 3 3 3 2 2 3 4 5 8 8 8 9 9 8 8 7 15 11 12 12 14 18 21 25 24 23 25 24 25 25 27 26 32 32 28 26 28 25 29 33 28 27 22 28 27 32 39
1 2 5 3 3 4 2 5 6 8 8 8 9 9 9 8 8 7 15 14 12 13 13 16 21 25 28 21 24 29 31 25 29 26 31 32 29 28 23 25 25 26 28 26 25 25 22 18 27
4 5 5 4 5 1 4 5 6 9 9 9 9 8 6 7 7 11 16 16 16 16 17 17 20 26 27 20 22 26 29 32 33 29 27 33 34 31 29 25 23 23 18 21 24 24 24 21 20
Wind_Direction
321 334 327 9 55 60 326 296 236 288 0 26 33 128 159 108 148 179 85 163 160 159 159 159 155 151 147 142 140 137 134 131 129 128 128 129 127 123 122 125 130 130 129 128 129 128 127 125 124
330 341 30 69 93 94 284 256 343 320 33 109 77 44 49 66 82 114 109 162 161 159 159 162 159 155 151 146 145 142 138 136 135 134 133 132 130 127 124 128 132 133 133 133 133 132 131 131 128
336 359 81 104 144 160 199 285 300 325 19 144 91 45 2 13 117 130 154 158 158 157 161 165 162 160 155 152 150 147 144 142 140 141 140 137 135 132 129 131 132 135 138 138 138 136 136 136 135
332 7 30 98 245 255 279 305 311 16 29 51 129 50 357 353 29 138 147 155 155 158 165 166 167 164 160 157 154 152 150 148 145 146 146 145 142 139 135 136 135 137 142 143 142 141 141 142 142
11 70 63 294 321 305 275 242 280 67 86 59 81 90 62 27 111 133 146 154 159 162 167 169 172 170 166 164 160 157 157 154 151 152 152 151 149 146 144 142 142 144 148 149 148 147 148 150 151
24 87 50 342 39 309 349 351 23 52 75 118 49 93 36 133 126 139 147 159 162 161 168 170 177 176 173 170 167 164 162 162 158 158 159 158 157 154 153 151 151 153 155 156 156 154 156 161 161
110 81 214 358 14 350 333 328 35 58 58 13 148 79 6 29 149 148 148 153 153 158 169 174 179 183 183 179 174 172 170 168 166 164 165 165 165 164 163 161 162 163 165 167 166 164 164 169 172
109 89 11 41 164 82 348 348 328 44 35 294 35 45 33 8 131 139 141 146 153 157 170 180 183 187 190 190 185 179 177 176 174 172 171 172 172 172 174 174 174 173 174 176 177 175 176 180 183
117 59 280 2 70 88 352 38 346 7 72 51 32 60 29 50 108 128 128 134 144 159 172 181 189 192 195 198 196 188 186 184 182 180 178 179 181 182 184 187 185 182 183 186 186 185 185 186 192
110 135 135 41 92 96 54 44 350 35 38 30 17 6 12 24 46 89 138 150 163 171 180 190 193 193 198 199 202 198 192 191 189 189 187 191 190 191 192 194 197 195 191 193 196 196 195 195 196
175 160 161 31 90 53 62 43 0 15 27 12 0 352 16 22 28 21 35 216 201 190 186 192 197 196 196 199 203 204 202 198 198 197 196 196 198 198 199 201 200 202 201 199 202 205 208 208 208
111 36 113 147 53 53 53 77 61 41 24 35 29 30 24 21 13 35 39 30 339 227 207 201 198 199 197 201 204 207 208 206 204 203 203 200 202 205 206 208 207 206 207 206 208 212 216 219 218
87 120 77 110 96 78 76 35 78 22 25 41 41 35 29 23 18 17 7 15 15 352 249 220 205 206 200 200 200 208 212 214 212 210 209 208 208 207 210 213 213 215 214 214 213 216 220 225 226
153 126 121 97 99 69 75 36 47 9 35 36 37 34 30 30 20 20 17 13 5 346 347 237 217 213 203 202 200 204 210 217 217 216 216 215 214 212 211 215 218 220 220 221 220 221 224 228 232
171 81 78 43 102 82 159 29 20 0 44 41 30 27 31 25 29 27 18 13 5 4 8 337 228 221 210 206 203 205 208 212 216 218 220 220 218 217 217 218 221 224 227 226 224 224 229 234 235
77 50 84 338 56 358 90 55 20 9 47 35 29 22 21 25 22 20 16 9 7 8 5 357 325 253 223 214 209 207 212 210 214 217 220 222 221 219 218 223 224 226 228 229 224 222 225 230 233
20 127 115 47 19 74 60 67 15 16 48 38 22 19 16 13 17 14 12 8 5 8 5 0 6 304 238 225 217 214 211 214 214 215 219 222 223 222 220 225 228 226 227 229 227 224 224 228 233
133 98 49 110 73 82 78 71 29 31 43 36 27 19 17 12 7 5 8 9 9 8 7 7 10 8 318 249 230 221 219 216 218 217 220 223 223 223 223 224 230 228 225 226 228 230 229 230 233
83 93 111 115 133 74 91 66 23 32 47 34 22 20 17 12 358 0 1 6 9 11 9 10 10 7 3 327 254 231 219 219 218 221 224 226 225 225 225 225 227 226 226 227 229 231 232 231 232
109 103 92 229 110 94 117 93 60 35 48 48 26 13 10 5 7 4 1 3 8 9 7 7 11 12 9 349 299 256 236 225 219 222 223 225 227 227 228 227 226 227 229 230 231 231 229 233 229
64 126 138 125 67 53 109 50 26 16 27 39 43 21 17 11 357 354 360 359 4 10 4 7 13 17 17 11 356 284 274 238 232 228 227 227 229 229 232 230 227 228 229 230 232 233 227 225 228
62 76 70 6 60 166 163 244 60 303 346 43 19 43 1 3 350 347 347 356 2 2 8 8 15 21 26 26 21 17 4 330 257 233 232 233 231 233 234 233 232 231 230 230 232 233 235 228 227
171 140 161 258 47 71 316 81 246 317 316 342 352 23 339 340 330 326 338 344 357 16 9 14 15 21 27 35 32 22 17 9 3 1 264 257 283 253 239 238 235 234 233 234 233 233 236 234 231
301 104 83 64 94 16 259 128 290 291 257 303 326 351 331 334 323 327 338 2 5 17 23 17 19 19 20 33 38 36 23 21 18 21 21 16 3 352 16 320 250 237 234 233 235 234 236 235 234
52 88 47 24 19 220 156 51 230 254 261 276 309 305 306 303 317 315 325 344 0 13 21 21 24 19 21 20 36 37 38 26 26 27 23 26 11 360 334 5 343 9 303 240 233 236 235 235 234
56 130 149 169 175 187 2 188 263 235 259 265 286 280 288 282 297 300 316 327 333 2 21 26 16 20 23 24 26 31 38 41 29 32 31 31 26 5 11 12 9 336 360 19 262 244 240 241 239
239 53 162 104 19 73 179 318 305 241 272 249 264 264 264 258 265 276 294 312 314 340 6 26 27 24 22 23 24 25 33 31 34 29 38 32 30 13 14 5 354 17 11 350 5 26 32 8 268
126 141 65 6 119 206 248 236 229 234 253 250 257 250 257 252 247 259 275 298 315 334 6 22 22 20 22 27 28 26 29 25 27 24 24 26 27 16 17 14 13 9 5 352 329 336 331 346 339
103 103 54 107 134 158 177 255 213 204 208 226 242 254 254 265 240 242 263 279 300 314 330 345 2 5 9 13 24 27 30 27 26 24 20 21 11 20 14 17 20 15 6 12 354 344 356 324 302
148 162 127 121 250 167 139 272 223 200 207 209 240 252 263 247 235 244 251 269 290 304 316 328 358 13 8 13 25 29 27 25 23 21 18 17 13 13 17 13 19 17 9 4 12 7 5 357 349